This is the latest recevied weather packets stored in our database for station/object n3uvr. If no packets are shown the sender has not sent any weather packets the latest 10 day(s).
| Time | Temp. | Humidity | Pressure | Rain* | Wind** | Luminosity | Snow |
|---|---|---|---|---|---|---|---|
| 1777607630 | 8.33° C | 71% | 1010.9 hPa | 0 mm | - | 0 W/m² | - |
| 1777606432 | 8.33° C | 71% | 1011 hPa | 0 mm | - | 0 W/m² | - |
| 1777605841 | 8.33° C | 71% | 1011 hPa | 0 mm | - | 0 W/m² | - |
| 1777604645 | 8.89° C | 70% | 1011 hPa | 0 mm | - | 0 W/m² | - |
| 1777604056 | 8.89° C | 70% | 1010.9 hPa | 0 mm | - | 0 W/m² | - |
| 1777603458 | 8.89° C | 69% | 1010.8 hPa | 0 mm | - | 0 W/m² | - |
| 1777602856 | 8.89° C | 69% | 1010.8 hPa | 0 mm | - | 0 W/m² | - |
| 1777602228 | 9.44° C | 68% | 1010.8 hPa | 0 mm | - | 0 W/m² | - |
| 1777601624 | 9.44° C | 67% | 1010.8 hPa | 0 mm | - | 0 W/m² | - |
| 1777601017 | 9.44° C | 68% | 1010.7 hPa | 0 mm | - | 0 W/m² | - |
| 1777599205 | 9.44° C | 68% | 1010 hPa | 0 mm | - | 0 W/m² | - |
| 1777598611 | 10° C | 68% | 1009.9 hPa | 0 mm | - | 0 W/m² | - |
| 1777598009 | 10° C | 67% | 1009.7 hPa | 0 mm | - | 0 W/m² | - |
| 1777597401 | 10° C | 67% | 1009.5 hPa | 0 mm | - | 0 W/m² | - |
| 1777596803 | 10.56° C | 67% | 1009.4 hPa | 0 mm | - | 0 W/m² | - |
| 1777595576 | 10.56° C | 66% | 1009.1 hPa | 0 mm | - | 0 W/m² | - |
| 1777593813 | 11.11° C | 65% | 1008.7 hPa | 0 mm | - | 14 W/m² | - |
| 1777592631 | 11.67° C | 64% | 1008.5 hPa | 0 mm | - | 19 W/m² | - |
| 1777592034 | 12.22° C | 64% | 1008.4 hPa | 0 mm | - | 28 W/m² | - |
| 1777591420 | 12.22° C | 64% | 1008 hPa | 0 mm | - | 54 W/m² | - |
| 1777590214 | 12.78° C | 63% | 1007.8 hPa | 0 mm | - | 62 W/m² | - |
| 1777589629 | 13.33° C | 61% | 1007.7 hPa | 0 mm | - | 53 W/m² | - |
| 1777589014 | 13.89° C | 61% | 1007.4 hPa | 0 mm | - | 77 W/m² | - |
| 1777588407 | 13.89° C | 61% | 1007.4 hPa | 0 mm | - | 91 W/m² | - |
| 1777587226 | 13.89° C | 61% | 1007.2 hPa | 0 mm | - | 155 W/m² | - |
* Rain latest hour (hover to see other rain measurements)
** Current wind speed in m/s (hover to see current wind gust speed)